User: anonymous   Login
Location: El Carrer d�Abaix
(41.5797°N, 2.1791°E)
Time: 03:07:10
(UTC+00:00)
Language:

Cosmos 1777 Rocket - Orbit

View from above orbital plane
View from above orbital plane
View from above satellite
View from above satellite

Ground track
Ground track

The orbit data is extracted from the following two-line orbital elements,

1 16953U 86070B   20221.69551979 +.00000033 +00000-0 +19804-4 0  9995
2 16953 074.0139 320.0358 0013352 267.7284 092.2341 14.37390307776852
Epoch (UTC): 08 August 2020 16:41:32
Eccentricity: 0.0013352
inclination: 74.0139°
perigee height: 757 km
apogee height: 776 km
right ascension of ascending node: 320.0358°
argument of perigee: 267.7284°
revolutions per day: 14.37390307
mean anomaly at epoch: 92.2341°
orbit number at epoch: 77685

The dashed part of the orbit path shows where the satellite is in the earth's shadow,  

DLR